Miscellaneous Local Product
Issued by NWS North Platte, NE

Home | Current Version | Previous Version | Text Only | Print | Product List | Glossary On
Versions: 1 2 3 4 5 6 7 8 9 10 11 12 13 14 15 16 17 18 19 20 21 22 23 24 25 26 27 28 29 30 31 32 33 34 35 36 37 38 39 40 41 42 43 44 45 46 47 48 49 50
845
AXUS43 KLBF 280310
MISLBF


WESTERN AND NORTH CENTRAL NEBRASKA HOURLY WEATHER ROUNDUP
NATIONAL WEATHER SERVICE NORTH PLATTE NE
1000 PM CDT SAT MAY 27 2017

NOTE: "FAIR" INDICATES FEW OR NO CLOUDS BELOW 12,000 FEET WITH NO
SIGNIFICANT WEATHER AND/OR OBSTRUCTIONS TO VISIBILITY.

NOTE: STATIONS NOT REPORTING VARIABLES SUCH AS SKY/WEATHER OR
PRESSURE ARE PROVIDED BY RAWS AND APRS NETWORKS AND ARE NOT UNDER
NATIONAL WEATHER SERVICE QUALITY CONTROL.

...OBSERVATIONS IN AND NEAR THE EASTERN PANHANDLE OF NEBRASKA...

CITY           SKY/WX    TMP DP  RH WIND       PRES   REMARKS
PINE RIDGE     MOCLDY    54  47  77 S3        30.05R
GORDON         FAIR      55  43  65 W8        30.05S
CHADRON        PTCLDY    51  45  79 W5        30.06R
ALLIANCE       CLEAR     48  43  82 SW9       30.09R
SIDNEY         CLEAR     45  41  86 W6        30.14R
CRESCENT LAKE    N/A     54  43  66 W8          N/A
$$

...OBSERVATIONS IN NORTHERN NEBRASKA AND FAR SOUTHERN SOUTH DAKOTA...

CITY           SKY/WX    TMP DP  RH WIND       PRES   REMARKS
WINNER         FAIR      60  49  66 SW6       29.93S
VALENTINE      CLOUDY    57  43  59 W9        29.99S
THEDFORD       CLEAR     57  46  68 W3        30.03F
AINSWORTH      LGT RAIN  57  47  71 SW8       29.99S
O`NEILL        PTCLDY    55  51  86 SW3       29.97S
ORD            PTCLDY    54  50  86 SW6       29.98S
BROKEN BOW     PTCLDY    57  52  83 W9        30.02R
VALENTINE NWR    N/A     59  43  55 W6          N/A
HALSEY           N/A     58  49  71 CALM        N/A
BUTTE            N/A     59  50  72 SW5         N/A
CHAMBERS         N/A     55  51  86 CALM        N/A
EWING            N/A     54  50  87 CALM        N/A
$$

...OBSERVATIONS IN SOUTHWEST NEBRASKA AND FAR NORTHEAST COLORADO...

CITY           SKY/WX    TMP DP  RH WIND       PRES   REMARKS
WRAY           FAIR      52  43  71 NW8       30.14R
IMPERIAL       CLEAR     54  48  80 CALM      30.10R
OGALLALA       CLEAR     51  45  80 NW6       30.08S
NORTH PLATTE   CLEAR     55  51  86 S3        30.05R
MCCOOK         CLOUDY    56  51  84 NW7       30.07R
LEXINGTON      CLOUDY    55  51  85 NW7       30.05R
STAPLETON        N/A     54  47  77 CALM        N/A
GOTHENBURG       N/A     59  48  67 NW3         N/A
CALLAWAY         N/A     56  51  85 NW5         N/A
$$

...OBSERVATIONS IN CENTRAL LINCOLN COUNTY AREA...

CITY           SKY/WX    TMP DP  RH WIND       PRES   REMARKS
N.P. AIRPORT   CLEAR     55  51  86 S3        30.05R
N.P. DOWNTOWN    N/A     55  51  85 CALM        N/A
N.P. SOUTHEAST   N/A     57  50  78 CALM        N/A
N.P. HILLCREST   N/A     58  52  80 CALM        N/A
$$

...SOME OBSERVATIONS FROM AROUND THE REGION...

CITY           SKY/WX    TMP DP  RH WIND       PRES   REMARKS
DENVER         PTCLDY    50  40  68 W9        30.22S
LIMON          CLEAR     46  43  89 NW8       30.20R
ASPEN          CLOUDY    42  33  70 SE9       30.33R
LARAMIE        CLEAR     39  30  70 NW9       30.27R WCI  33
CASPER         CLEAR     49  38  65 W3        30.21R
CHEYENNE       PTCLDY    49  34  56 NW6       30.23R
SCOTTSBLUFF    CLEAR     53  47  79 CALM      30.12R
GRAND ISLAND   CLEAR     60  53  77 NW7       29.99R
OMAHA          CLOUDY    64  55  72 CALM      29.90R
SIOUX FALLS    PTCLDY    60  54  80 SW5       29.91S
PIERRE         MOCLDY    64  39  39 NW14      29.90R
RAPID CITY     LGT RAIN  60  42  51 NW20      30.05R
BISMARCK       CLEAR     58  44  60 SW3       29.86R
KANSAS CITY    MOCLDY    67  63  87 N7        29.85S
HILL CITY      CLOUDY    63  56  78 N8        30.04R
WICHITA        CLEAR     71  62  73 N18G25    29.85R
DODGE CITY     CLOUDY    66  55  67 N15G24    30.04R
OKLAHOMA CITY  CLOUDY    83  66  56 N16       29.75R
DALLAS         CLEAR     86  76  71 S10       29.72F HX  96
AMARILLO       CLEAR     67  55  65 N13       29.96R
$$




USA.gov is the U.S. government's official web portal to all federal, state and local government web resources and services.